Probability
0 0 0 0 0 0 0 0 0 0 0 0 0 0 0 0 0 0 0 3 6 6 16 39 74 87 100 100 100 100 100 100 100 97 97 90 65 58 55 55 45 39 32 39
0 0 0 0 0 0 0 0 0 0 0 0 0 0 0 0 0 0 0 6 6 6 16 39 48 77 94 100 100 100 100 100 100 97 97 84 58 48 39 29 26 16 10 6
0 0 0 0 0 0 0 0 0 0 0 0 0 0 0 0 0 0 3 6 16 16 29 48 58 77 84 94 100 100 100 100 100 94 81 58 29 16 13 13 3 0 0 0
0 0 0 0 0 0 0 0 0 0 0 0 0 0 0 0 0 0 3 10 35 55 65 71 74 77 87 100 100 100 100 100 97 81 68 58 42 13 16 3 3 0 0 0
0 0 0 0 0 0 0 0 0 0 0 0 0 0 0 0 0 0 16 42 65 74 74 81 87 90 90 97 100 100 97 97 87 71 65 65 39 29 3 3 3 0 0 0
0 0 0 0 0 0 0 0 0 0 0 0 0 0 0 0 3 13 42 74 71 81 84 90 90 97 100 97 94 90 84 77 68 61 52 48 42 10 3 3 3 0 0 0
0 0 0 0 0 0 0 0 0 0 0 0 0 0 0 45 71 68 77 68 58 48 58 65 65 71 71 71 65 65 68 55 48 45 32 42 16 3 3 3 0 0 0 0
0 0 0 0 0 0 0 0 0 0 0 0 0 0 13 65 90 87 58 48 45 35 26 29 26 26 35 39 32 29 23 23 16 10 10 3 3 3 3 3 0 0 0 0
0 0 0 0 0 0 0 0 0 0 0 0 0 3 55 84 90 74 52 32 23 16 10 10 10 10 6 3 3 0 0 0 3 0 3 3 3 3 0 0 0 0 0 0
0 0 0 0 0 0 0 0 0 0 0 0 0 3 42 81 87 61 39 16 3 0 0 0 0 0 0 0 3 0 3 0 0 0 0 0 0 0 0 0 0 0 0 0
0 0 0 0 0 0 0 0 0 0 0 0 0 0 48 68 81 55 26 3 0 0 0 0 0 0 0 0 0 0 0 0 0 0 0 0 0 0 0 0 0 0 0 0
0 0 0 0 0 0 0 0 0 0 0 0 0 29 81 90 68 48 6 0 3 0 0 0 0 0 0 0 0 0 0 0 0 0 0 0 0 0 0 0 0 0 0 0
0 0 0 0 0 0 0 0 0 0 0 0 0 26 84 74 52 10 3 3 0 0 0 0 0 0 0 0 0 0 0 0 0 0 0 0 0 0 0 0 0 0 0 0
0 0 0 0 0 0 0 0 0 0 0 0 0 16 74 61 29 3 3 3 0 0 0 0 0 0 0 0 0 0 0 0 0 0 0 0 0 0 0 0 0 0 0 0
0 0 0 0 0 0 0 0 0 0 0 0 0 32 39 32 3 0 0 0 0 0 0 0 0 0 0 0 0 0 0 0 0 0 0 0 0 0 0 0 0 0 0 0
0 0 0 0 0 0 0 0 0 0 0 0 3 16 23 6 0 0 0 0 0 0 0 0 0 0 0 0 0 0 0 0 0 0 0 0 0 0 0 0 0 0 0 0
0 0 0 0 0 0 0 0 0 0 0 0 10 0 3 6 0 0 0 0 0 0 0 0 0 0 0 0 0 0 0 0 0 0 0 0 0 0 0 0 0 0 0 0
0 0 0 0 0 0 0 0 0 0 3 3 3 0 0 0 0 0 0 0 0 0 0 0 0 0 0 0 0 0 0 0 0 0 0 0 0 0 0 0 0 0 0 0
0 0 0 0 0 0 0 0 0 0 0 0 0 0 0 0 0 0 0 0 0 0 0 0 0 0 0 0 0 0 0 0 0 0 0 0 0 0 0 0 0 0 0 0
0 0 0 0 0 0 0 0 0 0 0 0 0 0 0 0 0 0 0 0 0 0 0 0 0 0 0 0 0 0 0 0 0 0 0 0 0 0 0 0 0 0 0 0
0 0 0 0 0 0 0 0 0 0 0 0 0 0 0 0 0 0 0 0 0 0 0 0 0 0 0 0 0 0 0 0 0 0 0 0 0 0 0 0 0 0 0 0
0 0 0 0 0 0 0 0 0 0 0 0 0 0 0 0 0 0 0 0 0 0 0 0 0 0 0 0 0 0 0 0 0 0 0 0 0 0 0 0 0 0 0 0
0 0 0 0 0 0 0 0 0 0 0 0 0 0 0 0 0 0 0 0 0 0 0 0 0 0 0 0 0 0 0 0 0 0 0 0 0 0 0 0 0 0 0 0
0 0 0 0 0 0 0 0 0 0 0 0 0 0 0 0 0 0 0 0 0 0 0 0 0 0 0 0 0 0 0 0 0 0 0 0 0 0 0 0 0 0 0 0
0 0 0 0 0 0 0 0 0 0 0 0 0 0 0 0 0 0 0 0 0 0 0 0 0 0 0 0 0 0 0 0 0 0 0 0 0 0 0 0 0 0 0 0
0 0 0 0 0 0 0 0 0 0 0 0 0 0 0 0 0 0 0 0 0 0 0 0 0 0 0 0 0 0 0 0 0 0 0 0 0 0 0 0 0 0 0 0
Height
5782 5789 5796 5802 5807 5813 5817 5824 5828 5833 5837 5839 5843 5848 5852 5857 5860 5864 5865 5866 5867 5866 5867 5869 5869 5869 5870 5873 5874 5874 5873 5872 5872 5872 5871 5870 5870 5869 5867 5865 5863 5861 5860 5857
5777 5784 5791 5795 5801 5807 5811 5817 5824 5831 5836 5837 5839 5844 5848 5853 5856 5859 5861 5863 5863 5862 5862 5864 5864 5863 5864 5867 5869 5869 5868 5868 5867 5866 5866 5865 5865 5865 5863 5861 5858 5857 5855 5853
5772 5780 5784 5790 5796 5802 5807 5812 5819 5828 5833 5833 5835 5838 5843 5847 5852 5854 5855 5857 5857 5857 5859 5860 5859 5859 5859 5861 5863 5864 5863 5862 5861 5860 5860 5859 5859 5859 5857 5855 5853 5851 5850 5848
5768 5775 5780 5785 5791 5797 5802 5807 5813 5819 5827 5828 5829 5833 5838 5841 5846 5848 5850 5851 5850 5852 5855 5857 5856 5855 5856 5856 5856 5857 5857 5856 5854 5854 5853 5853 5853 5852 5851 5849 5848 5846 5844 5843
5764 5770 5776 5781 5787 5792 5797 5803 5807 5812 5816 5821 5824 5827 5833 5837 5839 5842 5842 5842 5843 5847 5850 5851 5851 5851 5850 5850 5850 5849 5850 5848 5847 5847 5846 5846 5845 5844 5844 5842 5841 5840 5838 5836
5763 5767 5772 5777 5782 5787 5793 5798 5803 5806 5809 5813 5818 5822 5827 5832 5833 5834 5832 5833 5837 5841 5843 5844 5845 5845 5845 5844 5843 5842 5842 5841 5840 5839 5838 5838 5837 5836 5836 5835 5834 5833 5831 5829
5759 5765 5769 5773 5778 5783 5788 5794 5799 5802 5804 5807 5813 5816 5821 5823 5823 5824 5825 5827 5831 5834 5836 5837 5838 5837 5837 5837 5836 5834 5833 5833 5832 5831 5830 5829 5829 5828 5827 5826 5825 5825 5823 5822
5760 5764 5767 5770 5775 5780 5784 5789 5795 5800 5804 5807 5809 5810 5814 5814 5816 5819 5821 5823 5825 5826 5828 5829 5829 5829 5829 5828 5827 5827 5826 5825 5824 5823 5822 5822 5821 5820 5819 5818 5817 5816 5815 5813
5758 5763 5766 5768 5771 5776 5780 5784 5790 5794 5797 5801 5805 5807 5804 5805 5808 5811 5814 5816 5817 5818 5819 5819 5820 5820 5819 5819 5819 5818 5818 5817 5816 5816 5815 5814 5813 5812 5811 5810 5809 5807 5806 5804
5754 5759 5763 5766 5769 5772 5776 5781 5785 5788 5791 5795 5800 5801 5798 5798 5801 5804 5806 5808 5809 5809 5810 5810 5810 5810 5810 5811 5811 5811 5810 5810 5809 5809 5808 5806 5805 5804 5802 5801 5799 5798 5796 5794
5753 5757 5761 5764 5767 5770 5773 5776 5779 5784 5788 5791 5795 5797 5789 5790 5792 5795 5797 5798 5799 5799 5800 5801 5801 5801 5802 5802 5803 5803 5802 5802 5802 5801 5800 5799 5797 5796 5794 5792 5790 5788 5786 5783
5752 5755 5757 5760 5764 5767 5770 5773 5775 5778 5781 5784 5788 5789 5783 5784 5784 5787 5788 5789 5790 5791 5792 5792 5792 5793 5793 5794 5794 5794 5794 5794 5793 5793 5792 5790 5788 5787 5785 5782 5780 5778 5775 5772
5751 5754 5756 5757 5761 5762 5764 5767 5770 5773 5775 5777 5781 5783 5777 5778 5779 5779 5780 5780 5782 5783 5784 5784 5784 5785 5785 5786 5786 5786 5785 5785 5784 5783 5782 5780 5778 5776 5774 5772 5769 5766 5763 5761
5749 5751 5752 5752 5751 5753 5756 5759 5761 5765 5768 5771 5774 5772 5770 5771 5771 5771 5771 5771 5773 5775 5776 5776 5776 5777 5777 5777 5777 5776 5776 5775 5774 5773 5771 5769 5767 5765 5762 5760 5757 5754 5751 5748
5747 5748 5748 5748 5748 5749 5751 5754 5755 5757 5760 5762 5763 5763 5763 5763 5762 5761 5762 5762 5764 5766 5767 5768 5768 5768 5767 5767 5766 5766 5765 5763 5762 5761 5759 5757 5754 5752 5749 5747 5744 5741 5738 5735
5744 5745 5746 5746 5747 5748 5749 5749 5750 5749 5750 5752 5754 5755 5755 5755 5754 5752 5753 5754 5756 5757 5758 5758 5758 5757 5756 5755 5754 5753 5752 5751 5749 5747 5745 5743 5741 5738 5736 5733 5730 5727 5725 5722
5742 5742 5743 5743 5744 5744 5745 5743 5744 5745 5745 5746 5746 5746 5745 5746 5744 5743 5744 5746 5746 5748 5748 5748 5747 5746 5745 5744 5742 5741 5739 5737 5736 5734 5732 5730 5727 5725 5722 5720 5717 5714 5712 5709
5740 5739 5739 5739 5740 5741 5740 5738 5739 5739 5738 5739 5739 5738 5738 5737 5736 5736 5737 5738 5738 5739 5739 5738 5737 5735 5734 5732 5729 5728 5726 5724 5722 5720 5719 5716 5714 5712 5709 5707 5704 5702 5699 5696
5737 5736 5735 5735 5735 5734 5732 5732 5732 5733 5732 5732 5731 5731 5730 5730 5730 5730 5730 5730 5730 5729 5729 5728 5726 5724 5722 5720 5718 5716 5715 5713 5710 5708 5706 5704 5702 5699 5697 5694 5692 5689 5686 5682
5735 5734 5732 5731 5730 5729 5728 5726 5726 5727 5725 5725 5724 5723 5723 5723 5723 5723 5722 5722 5721 5720 5719 5718 5716 5714 5712 5710 5708 5707 5705 5702 5700 5698 5695 5693 5690 5687 5684 5682 5679 5675 5672 5669
5733 5731 5729 5727 5726 5724 5723 5722 5722 5722 5721 5719 5717 5717 5716 5716 5716 5716 5715 5714 5713 5712 5711 5709 5708 5705 5703 5701 5699 5697 5695 5692 5690 5687 5684 5681 5678 5675 5672 5669 5666 5662 5659 5655
5730 5728 5725 5723 5722 5721 5718 5717 5717 5716 5714 5713 5712 5711 5711 5710 5709 5708 5707 5707 5706 5705 5704 5702 5700 5697 5695 5693 5690 5688 5685 5682 5679 5676 5672 5669 5666 5663 5660 5656 5653 5649 5646 5643
5727 5725 5722 5720 5719 5716 5714 5713 5712 5710 5709 5708 5708 5707 5706 5705 5704 5703 5702 5701 5700 5699 5697 5695 5692 5690 5687 5684 5681 5678 5675 5671 5668 5664 5661 5657 5654 5650 5647 5644 5640 5637 5634 5631
5723 5721 5719 5716 5713 5711 5710 5709 5707 5706 5705 5704 5703 5703 5702 5701 5700 5698 5697 5696 5694 5692 5690 5687 5685 5682 5679 5676 5672 5669 5665 5661 5658 5654 5651 5647 5643 5639 5636 5632 5629 5626 5622 5619
5721 5718 5715 5713 5710 5708 5707 5705 5704 5703 5701 5700 5699 5698 5697 5696 5695 5694 5692 5691 5688 5686 5684 5681 5678 5675 5672 5669 5665 5661 5657 5653 5648 5644 5640 5637 5633 5629 5625 5622 5619 5616 5612 5609
5718 5715 5713 5710 5708 5706 5704 5702 5701 5699 5698 5697 5696 5695 5693 5692 5691 5689 5687 5686 5683 5681 5679 5676 5673 5670 5666 5663 5659 5654 5650 5645 5640 5635 5631 5627 5623 5620 5617 5614 5610 5607 5605 5602
Wind_Speed
36 37 37 36 33 29 23 18 18 18 19 21 20 22 21 19 22 22 22 21 22 20 21 23 22 23 21 19 19 20 24 26 27 29 30 31 32 32 34 35 36 36 37 37
34 36 36 35 33 31 29 26 22 18 19 23 23 25 25 22 20 23 24 24 24 24 24 25 24 25 24 22 22 24 27 29 31 32 32 33 33 33 34 35 36 37 38 37
32 31 34 34 33 32 32 29 25 20 20 27 29 29 30 28 25 26 28 27 25 27 27 27 27 27 27 27 27 28 29 32 33 34 34 34 34 34 35 37 38 38 38 38
29 27 28 32 33 33 34 32 30 27 25 28 32 31 29 29 30 30 30 30 32 31 29 29 30 30 31 31 32 32 32 34 35 35 35 35 35 36 37 38 39 39 39 39
26 28 28 30 32 33 33 31 31 33 32 31 30 30 26 25 29 31 33 35 35 32 31 32 34 34 34 35 35 35 35 36 36 36 36 35 36 37 38 39 40 40 40 39
21 24 27 27 29 31 30 27 26 30 33 37 35 32 27 24 27 31 37 39 37 35 34 34 35 36 37 38 38 38 37 36 36 36 36 36 37 38 40 41 40 41 41 38
21 21 24 27 27 28 29 27 26 28 33 35 31 32 31 30 33 36 40 42 40 38 36 35 36 38 38 38 38 38 37 37 37 37 37 38 39 40 41 42 41 41 40 39
14 18 21 25 28 26 28 28 27 21 16 17 20 24 27 34 37 38 40 42 43 43 41 40 39 38 37 36 36 36 36 37 38 38 39 40 41 42 42 42 42 42 41 40
13 12 16 20 23 25 24 26 26 24 21 18 14 22 29 33 36 38 41 44 46 46 45 43 40 37 35 34 34 34 35 36 37 38 39 40 41 42 42 43 43 43 42 42
14 13 11 14 17 22 24 21 22 27 26 21 13 19 30 32 32 33 35 40 43 44 43 41 37 34 33 32 32 33 34 36 37 38 39 40 42 42 43 44 44 44 44 44
14 14 13 13 13 15 20 23 23 23 25 23 18 21 26 29 32 31 31 31 33 35 36 35 33 32 31 32 32 33 34 35 36 38 39 40 42 43 44 45 46 47 47 47
16 17 15 15 14 13 17 20 22 24 24 25 23 25 30 31 30 29 30 30 29 29 30 30 31 31 31 32 33 34 35 36 37 38 40 42 43 45 46 48 49 50 51 51
12 14 14 13 15 18 18 18 21 23 25 26 25 28 32 32 32 32 31 30 29 28 29 29 30 31 32 34 35 36 37 38 39 41 42 44 46 47 49 51 52 53 53 53
11 14 16 16 16 21 24 24 23 23 26 26 27 31 33 32 34 34 33 31 30 30 30 31 32 33 34 35 37 38 39 41 42 44 45 47 49 50 52 53 54 54 54 54
9 12 17 18 17 16 17 21 24 26 27 27 29 34 38 37 36 36 35 33 32 32 33 34 36 37 38 39 40 41 42 44 45 47 49 51 52 53 54 55 55 55 55 55
7 10 13 15 15 17 18 19 20 21 24 28 31 35 38 40 39 38 36 33 32 33 35 37 39 41 42 43 44 45 47 48 49 50 51 52 53 53 53 53 53 53 53 54
6 8 10 13 14 15 20 24 24 26 27 28 31 32 34 34 37 36 33 30 32 34 36 38 40 41 42 44 46 47 49 50 51 51 51 51 51 50 50 50 50 51 53 54
8 8 9 10 13 16 23 24 26 27 30 31 33 36 38 39 37 36 36 37 38 37 38 39 40 40 41 41 42 42 43 45 45 45 45 45 46 46 46 47 48 50 51 52
12 11 10 10 11 16 21 22 24 26 29 30 32 35 38 40 42 41 40 40 39 38 38 38 38 38 38 38 38 38 39 40 41 40 40 42 44 45 45 46 47 49 50 50
13 13 12 12 13 18 21 21 21 23 27 27 29 30 32 34 36 36 35 35 34 34 35 36 37 37 37 38 39 40 40 40 40 40 42 43 44 45 45 46 47 48 48 49
15 15 15 15 15 18 18 20 19 21 23 23 24 25 26 27 29 29 30 30 31 31 31 32 32 33 34 36 37 38 38 39 40 41 42 43 44 44 45 45 46 46 46 46
15 15 16 16 17 17 17 17 18 19 20 21 22 22 23 24 24 25 25 26 27 28 30 31 31 32 34 35 36 37 38 39 40 41 42 42 42 42 43 43 43 44 44 44
16 16 17 17 17 17 16 16 16 17 18 19 20 20 20 21 21 22 23 24 26 27 29 30 31 33 34 34 35 36 37 38 39 39 39 40 40 40 41 41 41 41 42 42
18 16 17 18 18 17 16 15 15 16 17 17 18 19 18 19 20 20 22 23 25 26 27 28 29 30 31 32 33 34 34 35 36 37 37 38 38 39 39 39 39 39 39 38
19 18 18 18 17 16 15 14 15 15 16 16 17 18 18 19 20 20 22 23 23 24 25 25 26 27 28 29 30 32 33 34 35 36 37 37 37 37 36 36 35 34 33 31
18 18 17 17 16 16 14 14 14 14 15 15 16 17 17 18 19 20 21 21 21 21 21 22 23 25 27 28 30 31 33 34 34 35 34 34 33 32 31 29 28 27 25 23
Wind_Direction
223 222 221 219 220 218 210 222 236 237 235 240 224 196 184 205 217 219 225 232 243 246 243 246 251 262 268 274 282 288 292 296 298 299 300 304 307 310 311 313 316 320 324 328
223 220 219 218 217 215 209 212 216 222 225 235 234 211 196 202 223 220 218 226 234 236 240 247 254 260 264 272 278 284 287 290 292 292 294 296 300 302 304 308 311 314 319 324
223 220 219 217 216 215 212 212 206 205 217 229 231 225 210 206 218 230 227 224 229 235 243 249 255 261 266 272 275 278 281 284 285 286 289 291 293 293 297 301 304 309 313 316
219 213 217 218 216 217 217 214 205 197 207 229 240 236 225 217 222 230 237 237 237 241 247 255 260 263 268 271 274 275 278 280 281 282 284 285 286 287 290 294 298 302 306 310
216 212 214 219 218 219 221 218 215 207 208 219 235 241 235 234 235 238 243 244 246 249 252 255 258 263 268 272 275 276 278 278 277 278 279 280 280 283 286 290 294 297 302 306
211 217 216 220 221 219 221 217 219 220 219 226 229 235 237 235 241 242 244 246 251 255 257 260 263 266 268 271 274 276 276 275 275 275 276 277 278 281 284 287 290 294 298 302
208 213 221 219 219 219 220 213 217 226 228 235 238 240 238 233 235 236 242 248 255 260 263 266 269 270 271 271 273 273 274 274 273 273 274 275 278 280 283 286 289 292 295 298
220 219 224 225 220 220 223 216 214 221 241 257 258 255 244 239 239 239 242 248 254 261 266 269 271 272 271 270 270 270 270 270 270 271 272 274 276 279 282 286 288 290 293 295
201 220 230 233 227 220 224 224 215 211 211 233 242 241 241 243 244 244 245 248 253 259 265 269 270 270 269 268 267 266 267 267 268 270 272 274 276 279 282 285 287 290 291 292
182 185 209 232 233 226 221 222 221 218 219 222 223 232 241 247 250 252 253 253 255 259 263 265 266 266 265 264 263 263 264 264 266 268 270 273 276 279 282 284 287 288 288 289
187 180 186 212 233 231 225 217 218 226 226 227 231 240 244 245 246 248 251 255 257 258 259 260 262 262 262 262 261 262 262 263 265 267 270 273 276 279 281 283 284 285 286 288
203 200 203 203 212 221 231 228 221 226 227 226 231 252 255 255 253 253 254 256 258 258 258 259 260 260 260 260 261 262 263 264 266 268 271 273 276 278 279 281 282 283 285 287
211 209 214 215 211 211 216 225 228 229 231 229 227 248 254 258 258 257 255 254 254 255 257 258 259 260 261 261 262 263 265 266 268 270 272 274 275 277 279 279 281 282 284 285
218 218 226 242 235 220 210 211 216 224 229 233 231 244 250 254 256 258 256 252 251 253 255 258 261 262 263 264 265 266 267 268 269 271 272 274 275 276 277 278 279 280 282 284
233 227 234 253 261 256 236 222 219 221 223 229 233 238 245 250 255 255 253 250 249 252 256 260 262 264 264 265 266 267 267 268 270 271 273 273 273 274 274 275 277 278 280 282
258 248 248 253 263 265 266 255 245 238 230 230 235 239 244 248 254 254 252 253 254 258 261 263 264 264 265 265 266 267 268 269 270 270 271 272 272 272 273 274 277 279 282 285
297 278 265 255 252 257 260 262 262 262 260 253 248 249 251 255 258 262 263 262 263 265 266 265 265 266 266 266 267 268 268 268 268 269 269 270 271 273 275 278 281 284 287 288
324 309 290 268 255 254 258 261 261 263 263 259 257 256 259 262 267 269 270 270 271 271 270 269 266 264 265 265 264 263 263 264 266 269 273 276 279 280 282 284 285 286 287 288
334 322 309 286 259 260 266 267 263 263 265 263 264 262 263 264 266 270 271 272 272 271 269 268 266 264 265 268 271 273 274 276 280 282 283 286 288 288 288 289 289 289 289 290
333 323 311 298 275 260 270 273 272 267 268 269 269 270 270 269 269 271 272 272 271 270 269 268 268 269 269 273 277 280 283 285 286 288 289 290 291 292 291 291 290 290 290 291
325 320 313 302 288 281 282 280 278 273 272 273 272 271 272 272 271 271 270 268 268 270 271 271 273 277 281 285 287 289 290 291 292 292 293 293 293 292 292 291 291 291 291 292
321 316 312 307 298 293 289 284 279 278 277 278 279 278 278 277 277 277 277 277 279 282 284 286 288 291 293 295 295 294 294 294 294 294 294 294 294 293 293 293 293 293 293 294
322 316 310 309 304 299 294 290 287 284 283 284 285 286 287 289 290 288 289 291 293 293 294 294 295 296 296 297 296 296 296 296 296 296 296 296 296 295 295 295 295 295 295 296
324 319 311 310 308 304 299 294 291 289 291 293 294 294 296 296 297 295 296 297 298 298 299 299 299 300 300 300 300 300 300 300 300 299 298 298 298 298 297 297 297 297 297 297
322 318 313 311 311 308 306 300 296 295 295 296 297 297 299 301 301 301 302 302 303 303 304 304 304 304 305 305 306 305 305 304 303 302 301 300 299 299 299 299 299 300 300 300
324 318 314 313 310 308 308 303 300 300 301 300 299 301 303 305 306 307 308 308 308 308 309 310 310 310 310 310 310 309 308 307 305 304 302 301 301 300 300 300 300 301 302 304